This demonstration page uses our WeatherBlox Daily Observations layout. Learn more.

Left ArrowRight Arrow

Hourly Observations for September 9, 2022

Temp ( °F °C ) Dew Point ( °F °C ) Humidity (%) Winds ( mph kmh ) Pressure ( in mb ) Visibility ( mi km ) Precip ( " mm )
12:53 am 00:53 Clear 61 16.1 59 15 93 93 Calm 29.94 1014 10 16 0.00 0.00
1:53 am 01:53 Clear 60 15.6 58 14.4 93 93 Calm 29.95 1014 9 14 0.00 0.00
2:53 am 02:53 Clear with Mist and Fog 59 15 58 14.4 96 96 Calm 29.95 1014 5 8 0.00 0.00
3:02 am 03:02 Clear with Mist and Fog 59 15 57 13.9 93 93 Calm 29.96 1014 3 4 0.00 0.00
3:09 am 03:09 Clear 59 15 57 13.9 93 93 Calm 29.96 1014 10 16 0.00 0.00
3:53 am 03:53 Clear with Mist and Fog 59 15 57 13.9 93 93 Calm 29.95 1014 6 10 0.00 0.00
4:53 am 04:53 Clear 59 15 57 13.9 93 93 Calm 29.95 1014 7 11 0.00 0.00
5:53 am 05:53 Clear with Mist and Fog 59 15 57 13.9 93 93 Calm 29.96 1014 3 5 0.00 0.00
6:00 am 06:00 Clear with Mist and Fog 57 13.9 56 13.3 96 96 Calm 29.97 1015 3 4 0.00 0.00
6:08 am 06:08 Clear 57 13.9 56 13.3 96 96 Calm 29.97 1015 8 13 0.00 0.00
6:53 am 06:53 Clear 58 14.4 57 13.9 97 97 Calm 29.96 1015 7 11 0.00 0.00
7:53 am 07:53 Sunny 59 15 58 14.4 96 96 Calm 29.99 1016 9 14 0.00 0.00
8:53 am 08:53 Sunny 67 19.4 63 17.2 87 87 Calm 29.99 1016 10 16 0.00 0.00
9:53 am 09:53 Sunny 71 21.7 64 17.8 79 79 Calm 29.99 1016 10 16 0.00 0.00
10:53 am 10:53 Sunny 76 24.4 64 17.8 67 67 VRB 5 7 29.99 1016 10 16 0.00 0.00
11:53 am 11:53 Sunny 78 25.6 64 17.8 62 62 VRB 5 7 29.99 1016 10 16 0.00 0.00
12:53 pm 12:53 Sunny 81 27.2 65 18.3 58 58 VRB 5 7 29.98 1015 10 16 0.00 0.00
1:53 pm 13:53 Partly Cloudy 80 26.7 65 18.3 60 60 VRB 5 7 29.96 1015 10 16 0.00 0.00
2:53 pm 14:53 Partly Cloudy 83 28.3 65 18.3 55 55 undefined N/A 29.95 1014 10 16 0.00 0.00
3:53 pm 15:53 Partly Cloudy 83 28.3 65 18.3 55 55 ESE 6 9 29.94 1014 10 16 0.00 0.00
4:53 pm 16:53 Partly Cloudy 84 28.9 64 17.8 51 51 VRB 5 7 29.93 1014 10 16 0.00 0.00
5:53 pm 17:53 Mostly Sunny 83 28.3 64 17.8 53 53 VRB 3 6 29.93 1014 10 16 0.00 0.00
6:53 pm 18:53 Mostly Sunny 77 25 66 18.9 69 69 Calm 29.94 1014 10 16 0.00 0.00
7:53 pm 19:53 Sunny 73 22.8 67 19.4 81 81 Calm 29.95 1014 10 16 0.00 0.00
8:53 pm 20:53 Clear 70 21.1 67 19.4 90 90 Calm 29.97 1015 10 16 0.00 0.00
9:53 pm 21:53 Clear 69 20.6 66 18.9 90 90 Calm 29.99 1016 10 16 0.00 0.00
10:53 pm 22:53 Clear 68 20 66 18.9 93 93 Calm 29.99 1016 10 16 0.00 0.00
11:53 pm 23:53 Clear 68 20 66 18.9 93 93 Calm 30.00 1016 10 16 0.00 0.00

Powered by AerisWeather